| time (UTC) | temp C | wind direction | speed KPH | gust KPH | rain 1hr cm | rain 24hr cm | rain mn cm | humidity % | barometer mb |
| 20260502151502 | 10 | 154 | 1.6 | 11.3 | 0.00 | 0.91 | 0.03 | 79 | 1013.4 |
| 20260502123100 | 9 | 261 | 1.6 | 11.3 | 0.00 | 1.93 | 0.03 | 90 | 1012.8 |
| 20260502121533 | 8 | 252 | 4.8 | 9.7 | 0.00 | 1.93 | 0.03 | 90 | 1012.7 |
| 20260502114527 | 8 | 259 | 1.6 | 9.7 | 0.03 | 1.93 | 0.03 | 94 | 1012.4 |
| 20260502113029 | 7 | 44 | 0.0 | 11.3 | 0.03 | 1.93 | 0.03 | 94 | 1012.3 |
| 20260502111519 | 7 | 226 | 0.0 | 9.7 | 0.03 | 1.93 | 0.03 | 94 | 1012.2 |
| 20260502110019 | 7 | 235 | 1.6 | 6.4 | 0.00 | 1.93 | 0.00 | 95 | 1012.0 |
| 20260502104518 | 6 | 243 | 3.2 | 8.0 | 0.00 | 1.93 | 0.00 | 95 | 1012.0 |
| 20260502103013 | 6 | 279 | 1.6 | 6.4 | 0.00 | 1.93 | 0.00 | 95 | 1011.8 |
| 20260502101512 | 5 | 267 | 1.6 | 8.0 | 0.00 | 1.93 | 0.00 | 96 | 1011.6 |
| 20260502091500 | 3 | 252 | 0.0 | 3.2 | 0.00 | 1.93 | 0.00 | 96 | 1010.5 |
| 20260502090104 | 3 | 257 | 0.0 | 3.2 | 0.00 | 1.93 | 0.00 | 96 | 1010.4 |
| 20260502080107 | 4 | 263 | 0.0 | 1.6 | 0.00 | 2.03 | 0.00 | 96 | 1009.7 |
| 20260502070050 | 5 | 267 | 0.0 | 3.2 | 0.00 | 2.24 | 0.00 | 96 | 1009.4 |
| 20260502064547 | 5 | 269 | 0.0 | 4.8 | 0.00 | 2.26 | 0.00 | 96 | 1009.4 |
| 20260502063035 | 5 | 254 | 0.0 | 4.8 | 0.00 | 2.26 | 0.00 | 96 | 1009.0 |
| 20260502061534 | 6 | 257 | 0.0 | 6.4 | 0.00 | 2.26 | 0.00 | 96 | 1009.0 |
| 20260502060032 | 6 | 257 | 0.0 | 4.8 | 0.00 | 2.26 | 0.00 | 96 | 1008.8 |
| 20260502054533 | 6 | 270 | 1.6 | 4.8 | 0.00 | 2.26 | 0.00 | 96 | 1008.7 |
| 20260502053026 | 6 | 271 | 3.2 | 6.4 | 0.00 | 2.26 | 0.00 | 97 | 1008.6 |
| 20260502051529 | 6 | 262 | 1.6 | 8.0 | 0.00 | 2.26 | 0.00 | 97 | 1008.5 |
| 20260502050034 | 7 | 288 | 1.6 | 8.0 | 0.00 | 2.26 | 0.00 | 97 | 1008.3 |
| 20260502044521 | 7 | 258 | 0.0 | 6.4 | 0.00 | 2.26 | 0.00 | 97 | 1008.1 |
| 20260502043018 | 7 | 259 | 1.6 | 6.4 | 0.00 | 2.26 | 0.00 | 97 | 1007.9 |
| 20260502041516 | 7 | 273 | 1.6 | 6.4 | 0.00 | 2.26 | 0.00 | 97 | 1007.8 |
| 20260502040014 | 6 | 281 | 1.6 | 0.0 | 0.00 | 0.00 | 0.00 | 97 | 1007.7 |
| 20260502034512 | 6 | 345 | 1.6 | 8.0 | 0.00 | 2.26 | 0.00 | 97 | 1007.6 |
| 20260502033009 | 7 | 268 | 0.0 | 3.2 | 0.00 | 2.26 | 0.00 | 97 | 1007.5 |
| 20260502031508 | 7 | 281 | 1.6 | 6.4 | 0.00 | 2.26 | 0.00 | 97 | 1007.5 |
| 20260502030005 | 7 | 266 | 1.6 | 3.2 | 0.00 | 2.26 | 0.00 | 97 | 1007.3 |
| 20260502024504 | 6 | 274 | 0.0 | 3.2 | 0.00 | 2.26 | 2.26 | 97 | 1007.4 |
| 20260502023006 | 5 | 141 | 0.0 | 0.0 | 0.00 | 2.26 | 2.26 | 97 | 1007.4 |
| 20260502021503 | 4 | 141 | 0.0 | 1.6 | 0.00 | 2.26 | 2.26 | 96 | 1007.2 |
| 20260502020002 | 4 | 139 | 0.0 | 0.0 | 0.00 | 2.26 | 2.26 | 96 | 1007.1 |
| 20260502014503 | 4 | 139 | 0.0 | 1.6 | 0.00 | 2.26 | 2.26 | 96 | 1006.9 |
| 20260502013003 | 4 | 32 | 0.0 | 1.6 | 0.00 | 2.26 | 2.26 | 96 | 1006.9 |
| 20260502011502 | 4 | 32 | 0.0 | 0.0 | 0.03 | 2.26 | 2.26 | 96 | 1006.7 |
| 20260502010100 | 5 | 32 | 0.0 | 1.6 | 0.03 | 2.26 | 2.26 | 96 | 1006.6 |
| 20260502010003 | 5 | 32 | 0.0 | 1.6 | 0.03 | 2.26 | 2.26 | 96 | 1006.6 |
| 20260502004603 | 5 | 32 | 0.0 | 1.6 | 0.03 | 2.26 | 2.26 | 96 | 1006.5 |
| 20260502003200 | 4 | 32 | 0.0 | 1.6 | 0.03 | 2.26 | 2.26 | 96 | 1006.3 |
| 20260502001601 | 5 | 351 | 0.0 | 1.6 | 0.00 | 2.24 | 2.24 | 96 | 1006.0 |
| 20260502000107 | 5 | 351 | 0.0 | 0.0 | 0.00 | 2.24 | 2.24 | 96 | 1005.8 |
| 20260501234601 | 5 | 350 | 0.0 | 0.0 | 0.00 | 2.24 | 2.24 | 96 | 1005.5 |
| 20260501233102 | 5 | 350 | 0.0 | 1.6 | 0.00 | 2.24 | 2.24 | 96 | 1005.1 |
| 20260501231658 | 5 | 87 | 0.0 | 1.6 | 0.00 | 2.24 | 2.24 | 96 | 1005.1 |
| 20260501224555 | 5 | 87 | 0.0 | 0.0 | 0.00 | 2.24 | 2.24 | 96 | 1004.7 |
| 20260501223055 | 5 | 87 | 0.0 | 0.0 | 0.00 | 2.24 | 2.24 | 96 | 1004.5 |
| 20260501221559 | 5 | 87 | 0.0 | 1.6 | 0.00 | 2.24 | 2.24 | 96 | 1004.4 |
| 20260501214555 | 5 | 87 | 0.0 | 1.6 | 0.03 | 2.24 | 2.24 | 96 | 1004.2 |
| 20260501213059 | 6 | 87 | 0.0 | 1.6 | 0.03 | 2.24 | 2.24 | 96 | 1004.2 |
| 20260501211556 | 6 | 87 | 0.0 | 1.6 | 0.05 | 2.24 | 2.24 | 96 | 1004.1 |
| 20260501210053 | 6 | 35 | 0.0 | 3.2 | 0.05 | 2.24 | 2.24 | 96 | 1004.0 |
| 20260501204552 | 6 | 134 | 0.0 | 1.6 | 0.05 | 2.21 | 2.21 | 96 | 1003.9 |
| 20260501203057 | 6 | 152 | 0.0 | 0.0 | 0.05 | 2.21 | 2.21 | 96 | 1004.1 |
| 20260501201557 | 6 | 152 | 0.0 | 0.0 | 0.05 | 2.21 | 2.21 | 96 | 1004.2 |
| 20260501200051 | 6 | 151 | 0.0 | 0.0 | 0.08 | 2.21 | 2.21 | 96 | 1004.0 |
| 20260501194604 | 6 | 165 | 0.0 | 0.0 | 0.13 | 2.18 | 2.18 | 96 | 1004.0 |
| 20260501193048 | 6 | 139 | 0.0 | 1.6 | 0.23 | 2.16 | 2.16 | 96 | 1003.8 |
| 20260501191554 | 6 | 160 | 0.0 | 3.2 | 0.28 | 2.13 | 2.13 | 96 | 1004.0 |
| 20260501190051 | 6 | 54 | 0.0 | 1.6 | 0.30 | 2.11 | 2.11 | 96 | 1004.1 |
| 20260501184549 | 7 | 55 | 0.0 | 3.2 | 0.30 | 2.03 | 2.03 | 96 | 1004.1 |
| 20260501183042 | 7 | 122 | 0.0 | 6.4 | 0.25 | 1.93 | 1.93 | 96 | 1004.2 |
| 20260501181602 | 7 | 39 | 0.0 | 4.8 | 0.33 | 1.85 | 1.85 | 96 | 1004.5 |
| 20260501180043 | 7 | 47 | 0.0 | 3.2 | 0.41 | 1.83 | 1.83 | 96 | 1004.7 |
| 20260501174537 | 7 | 160 | 0.0 | 1.6 | 0.33 | 1.75 | 1.75 | 96 | 1004.8 |
| 20260501173056 | 8 | 248 | 0.0 | 4.8 | 0.30 | 1.68 | 1.68 | 96 | 1005.1 |
| 20260501171536 | 7 | 266 | 3.2 | 9.7 | 0.15 | 1.52 | 1.52 | 96 | 1005.4 |
| 20260501170031 | 7 | 237 | 4.8 | 9.7 | 0.05 | 1.42 | 1.42 | 96 | 1005.4 |
| 20260501164534 | 7 | 236 | 4.8 | 11.3 | 0.03 | 1.40 | 1.40 | 96 | 1005.4 |
| 20260501163027 | 7 | 200 | 4.8 | 12.9 | 0.00 | 1.37 | 1.37 | 96 | 1005.5 |
| 20260501161526 | 7 | 271 | 6.4 | 32.2 | 0.00 | 1.37 | 1.37 | 96 | 1005.8 |
| 20260501160027 | 7 | 220 | 9.7 | 19.3 | 0.03 | 1.37 | 1.37 | 96 | 1005.8 |
| 20260501154526 | 6 | 143 | 4.8 | 9.7 | 0.03 | 1.37 | 1.37 | 96 | 1005.8 |